Showing default

YAOGAN-35 05A, 53760

Orbit data source: Space-Track

YAOGAN-35 05A, 53760 is a payload satellite owned by PLA GAD (CN) in LEO that was launched on Tue, 06 Sep 2022 UTC via a CHANG ZHENG 2D launch vehicle from the Xichang Space Center, China (XSC). Payload-class satellites include a variety of spacecraft equipped with specific instruments for various scientific and technological missions. These include communications satellites like Starlink; space stations such as the ISS; scientific satellites like the Hubble; Earth observation satellites from companies like Planet Labs, Umbra, and HawkEye 360; GPS; miniature CubeSats for education and research; and military/defense satellites.

Loading next visibility...
Identifier
53760, 2022-109A
Orbit
LEO
Country
Flag of CNCN / PRC
Related business
Manufacturer
DFH
Mission
Operational Defense Sigint
Bus & Motor
Unknown
Mass
~300 kg wet, ~300 kg dry
Launch date (UTC)
2022-09-06 (3 years ago)
Launch vehicle
CHANG ZHENG 2D
Launch site
Xichang Space Center, China (XSC)
Object type
Payload
Rocket body
Debris
Shape & HBR
Box + 2 Pan, 2.5 m
Radar Cross Section
11.063 m², Large (>1 m²)

Expand to show TLE details & history
Last TLE update: 1 day ago

TLE from 1 day ago
0 YAOGAN-35 05A
1 53760U 22109A   25354.43357146  .00010571  00000-0  43681-3 0  9996
2 53760  35.0078  23.0099 0002760 275.1977  84.8423 15.23222612183346
Epoch: 2025-12-20T10:24Z
TLE epoch observation values (Epoch: 2025-12-20T10:24:20.574Z)
Latitude
Longitude
137.66374°
Altitude
494.866 km
Speed
7.62 km/s
True Right ascension
01h 32m 02s
True Declination
0° 00' 00"
Sunlit
Object was in full shadow at epoch
Visualization orbit readout
Latitude
Unknown
Longitude
Unknown
Altitude
Unknown
Speed
Unknown
Apparent Right ascension
Unknown
Apparent Declination
Unknown
Sunlit
N/A
Visualization observer readout
Local Sidereal Time
12:18:20
Azimuth
Unknown
Elevation
Unknown
Doppler factor
Unknown
Orbital elements
Apogee altitude
501.275 km
Perigee altitude
497.479 km
Semi-major axis
6,877.514 km
Eccentricity
0.00028
Inclination
35.0078°
RAAN
23.0099°
Arg. of periapsis
275.1977°
True anomaly
84.8738°
Mean anomaly
84.8423°
Eccentric anomaly
84.85805°
Mean motion
3.80536 °/min
Orbital period
94.6 mins
BSTAR
0.00043681
Loading maneuver chart data...
Computing Atmospheric mass density...
Loading historical data...
Loading historical data...
Loading historical data...
Loading historical data...
Loading historical data...
Loading historical data...
Loading historical data...
Other satellites on launch #109 in the year 2022 (2022-09-06 UTC)

Documentation

Showing up to 5 results
|